{"data":{"norad_id":40338,"epoch":"2026-09-20T04:42:23.126400Z","epoch_age_seconds":67481,"freshness":"FRESH","line1":"1 40338U 14080A   26263.19610100 -.00000008  00000+0  91086-4 0  9994","line2":"2 40338  63.3860  65.9666 0374988   9.6527 351.1449 13.45419182578445","mean_motion":13.45419182,"eccentricity":0.0374988,"inclination_deg":63.386,"raan_deg":65.9666,"arg_perigee_deg":9.6527,"mean_anomaly_deg":351.1449,"bstar":9.1086e-5,"rev_number":57844,"period_min":107.02984016174,"perigee_km":809.14542435169,"apogee_km":1369.1747857162,"semimajor_km":7467.2971050339,"source":"CELESTRAK","updated_at":"2026-09-20T09:00:14.056672Z"}}